TimeEST,TemperatureF,Dew PointF,Humidity,Sea Level PressureIn,VisibilityMPH,Wind Direction,Wind SpeedMPH,Gust SpeedMPH,PrecipitationIn,Events,Conditions,WindDirDegrees,DateUTC
12:53 AM,26.1,19.9,78,30.19,10.0,NE,3.5,-,N/A,,Clear,40,2013-02-26 05:53:00
1:53 AM,26.1,19.0,75,30.19,10.0,NE,5.8,-,N/A,,Clear,50,2013-02-26 06:53:00
2:53 AM,25.0,19.0,78,30.16,10.0,NNE,5.8,-,N/A,,Clear,30,2013-02-26 07:53:00
3:53 AM,24.1,19.0,81,30.15,10.0,NE,9.2,-,N/A,,Clear,40,2013-02-26 08:53:00
4:53 AM,24.1,19.0,81,30.14,10.0,NNE,10.4,-,N/A,,Clear,20,2013-02-26 09:53:00
5:53 AM,24.1,18.0,77,30.13,10.0,NNE,9.2,-,N/A,,Clear,30,2013-02-26 10:53:00
6:53 AM,25.0,19.0,78,30.10,10.0,NE,5.8,-,N/A,,Clear,40,2013-02-26 11:53:00
7:53 AM,30.9,21.0,67,30.10,10.0,Variable,3.5,-,N/A,,Clear,0,2013-02-26 12:53:00
8:53 AM,34.0,21.9,61,30.10,10.0,ENE,9.2,16.1,N/A,,Clear,60,2013-02-26 13:53:00
9:53 AM,36.0,24.1,62,30.07,10.0,ESE,9.2,-,N/A,,Clear,110,2013-02-26 14:53:00
10:53 AM,39.0,25.0,57,30.04,10.0,ESE,16.1,24.2,N/A,,Clear,110,2013-02-26 15:53:00
11:53 AM,39.9,24.1,53,30.00,10.0,ESE,15.0,26.5,N/A,,Clear,120,2013-02-26 16:53:00
12:53 PM,42.1,25.0,51,29.96,10.0,East,15.0,21.9,N/A,,Clear,100,2013-02-26 17:53:00
1:53 PM,42.1,24.1,49,29.93,10.0,ESE,16.1,-,N/A,,Clear,110,2013-02-26 18:53:00
2:53 PM,42.1,24.1,49,29.91,10.0,ESE,18.4,24.2,N/A,,Overcast,110,2013-02-26 19:53:00
3:53 PM,39.9,26.1,58,29.87,10.0,East,12.7,20.7,0.00,Rain,Light Rain,100,2013-02-26 20:53:00
4:53 PM,39.0,27.0,62,29.85,10.0,East,16.1,20.7,0.00,Rain,Light Rain,100,2013-02-26 21:53:00
5:53 PM,36.0,30.0,79,29.82,8.0,NE,10.4,-,0.04,Rain,Light Rain,50,2013-02-26 22:53:00
6:53 PM,35.1,30.9,85,29.78,6.0,NE,10.4,-,0.07,Rain,Light Rain,40,2013-02-26 23:53:00
7:53 PM,35.1,33.1,92,29.80,4.0,NE,5.8,-,0.12,Rain,Rain,40,2013-02-27 00:53:00
8:53 PM,35.1,33.1,92,29.76,4.0,NE,10.4,-,0.14,Rain,Rain,40,2013-02-27 01:53:00
9:53 PM,35.1,33.1,92,29.73,4.0,ENE,12.7,-,0.18,Rain,Rain,60,2013-02-27 02:53:00
10:53 PM,35.1,33.1,92,29.67,10.0,NE,10.4,-,0.04,Rain,Light Rain,50,2013-02-27 03:53:00
11:41 PM,35.6,33.8,93,29.62,10.0,North,6.9,-,0.00,,Overcast,360,2013-02-27 04:41:00
11:53 PM,36.0,33.1,89,29.65,10.0,NNW,6.9,-,0.00,,Overcast,340,2013-02-27 04:53:00